Weather Roundup
Issued by NWS Springfield, MO

Home | Current Version | Previous Version | Text Only | Print | Product List | Glossary On
Versions: 1 2 3 4 5 6 7 8 9 10 11 12 13 14 15 16 17 18 19 20 21 22 23 24 25 26 27 28 29 30 31 32 33 34 35 36 37 38 39 40 41 42 43 44 45 46 47 48 49 50
000
NZUS99 KSGF 280407
HRRSGF

HOURLY WEATHER
NATIONAL WEATHER SERVICE SPRINGFIELD MO
1100 PM CDT MON MAR 27 2017

......SGF CWA......

CITY           SKY/WX    TMP DP  RH WIND       PRES   REMARKS
SPRINGFIELD    CLOUDY    52  50  93 N9        29.96S
JOPLIN         CLOUDY    52  50  93 N3        29.98R
WEST PLAINS    PTCLDY    53  50  89 N7        29.94S
ROLLA          CLOUDY    52  52 100 W7        29.95R FOG
OSAGE BEACH    CLOUDY   N/A N/A N/A W3        29.99R

......SURROUNDING SGF CWA......

CITY           SKY/WX    TMP DP  RH WIND       PRES   REMARKS
CHANUTE        CLOUDY    53  46  77 NE5       30.00R
PARSONS        CLOUDY    54  48  80 N3        30.00R
COFFEYVILLE    CLOUDY    54  49  83 N5        29.99R
EMPORIA        CLOUDY    52  48  86 NE3       29.99R
GROVE OK       CLOUDY    54  50  87 CALM      29.99F
ROGERS AR      CLOUDY    51  49  92 N3        29.98R
SILOAM SPRINGS CLOUDY    52  46  82 N8        29.96F
HARRISON AR    CLOUDY    53  50  89 VRB5      29.96S
NEAR YELLVILLE PTCLDY    55  46  71 NW6       29.93S

......KANSAS AND MISSOURI......

CITY           SKY/WX    TMP DP  RH WIND       PRES   REMARKS
KANSAS CTY INT CLOUDY    50  46  86 N3        30.00R
DOWNTOWN KC    CLOUDY    52  46  80 N5        29.99R
COLUMBIA       CLOUDY    53  52  96 NE7       29.97R
SEDALIA        CLOUDY    51  50  96 N7        29.99S FOG
ST JOSEPH      CLOUDY    47  44  90 NW5       30.01R
ST LOUIS       MOCLDY    55  51  86 NW7       29.94R
SPIRIT OF STL  MOCLDY    52  52 100 CALM      29.93S
KIRKSVILLE     CLOUDY    49  46  90 N6        30.00R
WICHITA        CLOUDY    52  46  80 SE8       29.99R
TOPEKA         CLOUDY    52  46  80 NE6       30.00R
OLATHE         CLOUDY    50  46  86 N5        29.99R

......TENNESSEE......

CITY           SKY/WX    TMP DP  RH WIND       PRES   REMARKS
MEMPHIS        MOCLDY    66  59  78 NE8       29.89R
NASHVILLE      PTCLDY    58  57  97 S6        29.85F FOG

......ARKANSAS.......

CITY           SKY/WX    TMP DP  RH WIND       PRES   REMARKS
FAYETTEVILLE   CLOUDY    52  48  86 N7        29.97R
FT SMITH       CLEAR     54  48  80 CALM      29.95R
LITTLE ROCK    PTCLDY    62  56  80 NW8       29.91R

......OKLAHOMA.......

CITY           SKY/WX    TMP DP  RH WIND       PRES   REMARKS
TULSA          CLEAR     54  48  80 CALM      29.96R
PONCA CITY     CLEAR     45  42  89 N5        29.98R
MCALESTER      CLEAR     55  49  80 NE3       29.96R
OKLAHOMA CITY  CLEAR     56  47  71 NE13      29.93S

......IOWA............

CITY           SKY/WX    TMP DP  RH WIND       PRES   REMARKS
DES MOINES     CLOUDY    48  41  76 N5        30.01R
QUAD CITIES    CLOUDY    50  45  83 N3        29.98R

......ILLINOIS........

CITY           SKY/WX    TMP DP  RH WIND       PRES   REMARKS
QUINCY         CLOUDY    50  48  93 N6        29.96S
CHICAGO        CLOUDY    42  36  79 NE9       29.98R




USA.gov is the U.S. government's official web portal to all federal, state and local government web resources and services.